#datetime,building,power
2022-12-13T00:00:00,mnr,11.61
2022-12-13T00:01:00,mnr,10.90
2022-12-13T00:02:00,mnr,10.84
2022-12-13T00:03:00,mnr,11.06
2022-12-13T00:04:00,mnr,11.10
2022-12-13T00:05:00,mnr,11.08
2022-12-13T00:06:00,mnr,11.13
2022-12-13T00:07:00,mnr,11.00
2022-12-13T00:08:00,mnr,10.79
2022-12-13T00:09:00,mnr,10.92
2022-12-13T00:10:00,mnr,10.85
2022-12-13T00:11:00,mnr,10.86
2022-12-13T00:12:00,mnr,11.22
2022-12-13T00:13:00,mnr,10.38
2022-12-13T00:14:00,mnr,12.11
2022-12-13T00:15:00,mnr,11.19
2022-12-13T00:16:00,mnr,11.63
2022-12-13T00:17:00,mnr,11.51
2022-12-13T00:18:00,mnr,11.48
2022-12-13T00:19:00,mnr,11.49
2022-12-13T00:20:00,mnr,11.41
2022-12-13T00:21:00,mnr,11.45
2022-12-13T00:22:00,mnr,11.48
2022-12-13T00:23:00,mnr,11.68
2022-12-13T00:24:00,mnr,13.97
2022-12-13T00:25:00,mnr,11.61
2022-12-13T00:26:00,mnr,11.59
2022-12-13T00:27:00,mnr,11.64
2022-12-13T00:28:00,mnr,12.11
2022-12-13T00:29:00,mnr,11.61
2022-12-13T00:30:00,mnr,11.49
2022-12-13T00:31:00,mnr,11.58
2022-12-13T00:32:00,mnr,11.68
2022-12-13T00:33:00,mnr,11.69
2022-12-13T00:34:00,mnr,12.24
2022-12-13T00:35:00,mnr,11.82
2022-12-13T00:36:00,mnr,11.85
2022-12-13T00:37:00,mnr,12.26
2022-12-13T00:38:00,mnr,11.76
2022-12-13T00:39:00,mnr,11.11
2022-12-13T00:40:00,mnr,11.75
2022-12-13T00:41:00,mnr,11.24
2022-12-13T00:42:00,mnr,11.85
2022-12-13T00:43:00,mnr,11.76
2022-12-13T00:44:00,mnr,11.86
2022-12-13T00:45:00,mnr,12.07
2022-12-13T00:46:00,mnr,11.82
2022-12-13T00:47:00,mnr,11.83
2022-12-13T00:48:00,mnr,11.75
2022-12-13T00:49:00,mnr,12.43
2022-12-13T00:50:00,mnr,11.83
2022-12-13T00:51:00,mnr,11.91
2022-12-13T00:52:00,mnr,12.10
2022-12-13T00:53:00,mnr,11.89
2022-12-13T00:54:00,mnr,11.88
2022-12-13T00:55:00,mnr,11.13
2022-12-13T00:56:00,mnr,11.24
2022-12-13T00:57:00,mnr,10.94
2022-12-13T00:58:00,mnr,10.95
2022-12-13T00:59:00,mnr,11.02
2022-12-13T01:00:00,mnr,11.38
2022-12-13T01:01:00,mnr,11.01
2022-12-13T01:02:00,mnr,6.89
2022-12-13T01:03:00,mnr,11.87
2022-12-13T01:04:00,mnr,11.76
2022-12-13T01:05:00,mnr,11.69
2022-12-13T01:06:00,mnr,12.43
2022-12-13T01:07:00,mnr,11.64
2022-12-13T01:08:00,mnr,11.67
2022-12-13T01:09:00,mnr,11.56
2022-12-13T01:10:00,mnr,12.16
2022-12-13T01:11:00,mnr,11.47
2022-12-13T01:12:00,mnr,12.72
2022-12-13T01:13:00,mnr,11.04
2022-12-13T01:14:00,mnr,11.95
2022-12-13T01:15:00,mnr,10.96
2022-12-13T01:16:00,mnr,10.45
2022-12-13T01:17:00,mnr,10.01
2022-12-13T01:18:00,mnr,9.93
2022-12-13T01:19:00,mnr,9.80
2022-12-13T01:20:00,mnr,10.76
2022-12-13T01:21:00,mnr,10.44
2022-12-13T01:22:00,mnr,10.90
2022-12-13T01:23:00,mnr,10.93
2022-12-13T01:24:00,mnr,11.21
2022-12-13T01:25:00,mnr,11.09
2022-12-13T01:26:00,mnr,11.22
2022-12-13T01:27:00,mnr,10.92
2022-12-13T01:28:00,mnr,11.05
2022-12-13T01:29:00,mnr,10.63
2022-12-13T01:30:00,mnr,10.70
2022-12-13T01:31:00,mnr,10.68
2022-12-13T01:32:00,mnr,11.20
2022-12-13T01:33:00,mnr,10.90
2022-12-13T01:34:00,mnr,10.59
2022-12-13T01:35:00,mnr,9.92
2022-12-13T01:36:00,mnr,9.71
2022-12-13T01:37:00,mnr,9.34
2022-12-13T01:38:00,mnr,9.38
2022-12-13T01:39:00,mnr,8.86
2022-12-13T01:40:00,mnr,8.97
2022-12-13T01:41:00,mnr,9.65
2022-12-13T01:42:00,mnr,8.78
2022-12-13T01:43:00,mnr,9.19
2022-12-13T01:44:00,mnr,8.52
2022-12-13T01:45:00,mnr,8.41
2022-12-13T01:46:00,mnr,8.48
2022-12-13T01:47:00,mnr,8.36
2022-12-13T01:48:00,mnr,9.24
2022-12-13T01:49:00,mnr,8.61
2022-12-13T01:50:00,mnr,8.56
2022-12-13T01:51:00,mnr,8.62
2022-12-13T01:52:00,mnr,8.62
2022-12-13T01:53:00,mnr,9.02
2022-12-13T01:54:00,mnr,9.06
2022-12-13T01:55:00,mnr,8.90
2022-12-13T01:56:00,mnr,8.98
2022-12-13T01:57:00,mnr,9.10
2022-12-13T01:58:00,mnr,9.16
2022-12-13T01:59:00,mnr,9.16
2022-12-13T02:00:00,mnr,9.12
2022-12-13T02:01:00,mnr,8.79
2022-12-13T02:02:00,mnr,8.61
2022-12-13T02:03:00,mnr,8.71
2022-12-13T02:04:00,mnr,8.56
2022-12-13T02:05:00,mnr,8.56
2022-12-13T02:06:00,mnr,8.79
2022-12-13T02:07:00,mnr,8.58
2022-12-13T02:08:00,mnr,8.87
2022-12-13T02:09:00,mnr,8.54
2022-12-13T02:10:00,mnr,8.49
2022-12-13T02:11:00,mnr,9.25
2022-12-13T02:12:00,mnr,9.94
2022-12-13T02:13:00,mnr,9.88
2022-12-13T02:14:00,mnr,9.89
2022-12-13T02:15:00,mnr,9.34
2022-12-13T02:16:00,mnr,9.73
2022-12-13T02:17:00,mnr,9.38
2022-12-13T02:18:00,mnr,9.78
2022-12-13T02:19:00,mnr,9.90
2022-12-13T02:20:00,mnr,9.20
2022-12-13T02:21:00,mnr,9.25
2022-12-13T02:22:00,mnr,9.25
2022-12-13T02:23:00,mnr,9.21
2022-12-13T02:24:00,mnr,9.01
2022-12-13T02:25:00,mnr,8.88
2022-12-13T02:26:00,mnr,8.92
2022-12-13T02:27:00,mnr,8.41
2022-12-13T02:28:00,mnr,8.46
2022-12-13T02:29:00,mnr,9.73
2022-12-13T02:30:00,mnr,8.72
2022-12-13T02:31:00,mnr,8.50
2022-12-13T02:32:00,mnr,9.17
2022-12-13T02:33:00,mnr,9.28
2022-12-13T02:34:00,mnr,9.28
2022-12-13T02:35:00,mnr,9.27
2022-12-13T02:36:00,mnr,9.28
2022-12-13T02:37:00,mnr,9.35
2022-12-13T02:38:00,mnr,9.37
2022-12-13T02:39:00,mnr,10.12
2022-12-13T02:40:00,mnr,9.44
2022-12-13T02:41:00,mnr,9.32
2022-12-13T02:42:00,mnr,9.37
2022-12-13T02:43:00,mnr,9.41
2022-12-13T02:44:00,mnr,9.34
2022-12-13T02:45:00,mnr,9.33
2022-12-13T02:46:00,mnr,9.27
2022-12-13T02:47:00,mnr,9.32
2022-12-13T02:48:00,mnr,8.89
2022-12-13T02:49:00,mnr,8.60
2022-12-13T02:50:00,mnr,8.66
2022-12-13T02:51:00,mnr,8.37
2022-12-13T02:52:00,mnr,8.81
2022-12-13T02:53:00,mnr,8.35
2022-12-13T02:54:00,mnr,9.64
2022-12-13T02:55:00,mnr,8.37
2022-12-13T02:56:00,mnr,8.53
2022-12-13T02:57:00,mnr,8.47
2022-12-13T02:58:00,mnr,8.53
2022-12-13T02:59:00,mnr,8.05
2022-12-13T03:00:00,mnr,8.03
2022-12-13T03:01:00,mnr,8.18
2022-12-13T03:02:00,mnr,8.71
2022-12-13T03:03:00,mnr,8.28
2022-12-13T03:04:00,mnr,8.69
2022-12-13T03:05:00,mnr,8.24
2022-12-13T03:06:00,mnr,8.17
2022-12-13T03:07:00,mnr,8.22
2022-12-13T03:08:00,mnr,8.19
2022-12-13T03:09:00,mnr,8.20
2022-12-13T03:10:00,mnr,8.12
2022-12-13T03:11:00,mnr,8.22
2022-12-13T03:12:00,mnr,8.19
2022-12-13T03:13:00,mnr,7.66
2022-12-13T03:14:00,mnr,7.91
2022-12-13T03:15:00,mnr,7.57
2022-12-13T03:16:00,mnr,7.42
2022-12-13T03:17:00,mnr,7.37
2022-12-13T03:18:00,mnr,7.35
2022-12-13T03:19:00,mnr,7.39
2022-12-13T03:20:00,mnr,8.04
2022-12-13T03:21:00,mnr,7.25
2022-12-13T03:22:00,mnr,7.94
2022-12-13T03:23:00,mnr,7.27
2022-12-13T03:24:00,mnr,7.90
2022-12-13T03:25:00,mnr,7.24
2022-12-13T03:26:00,mnr,7.90
2022-12-13T03:27:00,mnr,7.29
2022-12-13T03:28:00,mnr,7.30
2022-12-13T03:29:00,mnr,7.28
2022-12-13T03:30:00,mnr,7.35
2022-12-13T03:31:00,mnr,7.26
2022-12-13T03:32:00,mnr,7.86
2022-12-13T03:33:00,mnr,7.43
2022-12-13T03:34:00,mnr,7.19
2022-12-13T03:35:00,mnr,7.24
2022-12-13T03:36:00,mnr,7.21
2022-12-13T03:37:00,mnr,7.23
2022-12-13T03:38:00,mnr,7.57
2022-12-13T03:39:00,mnr,7.63
2022-12-13T03:40:00,mnr,7.49
2022-12-13T03:41:00,mnr,7.58
2022-12-13T03:42:00,mnr,7.60
2022-12-13T03:43:00,mnr,8.01
2022-12-13T03:44:00,mnr,7.56
2022-12-13T03:45:00,mnr,8.26
2022-12-13T03:46:00,mnr,7.61
2022-12-13T03:47:00,mnr,7.64
2022-12-13T03:48:00,mnr,7.58
2022-12-13T03:49:00,mnr,8.43
2022-12-13T03:50:00,mnr,7.73
2022-12-13T03:51:00,mnr,7.72
2022-12-13T03:52:00,mnr,8.86
2022-12-13T03:53:00,mnr,8.48
2022-12-13T03:54:00,mnr,8.48
2022-12-13T03:55:00,mnr,8.53
2022-12-13T03:56:00,mnr,8.54
2022-12-13T03:57:00,mnr,8.47
2022-12-13T03:58:00,mnr,9.08
2022-12-13T03:59:00,mnr,8.54
2022-12-13T04:00:00,mnr,8.54
2022-12-13T04:01:00,mnr,8.73
2022-12-13T04:02:00,mnr,8.86
2022-12-13T04:03:00,mnr,8.54
2022-12-13T04:04:00,mnr,8.52
2022-12-13T04:05:00,mnr,8.44
2022-12-13T04:06:00,mnr,8.48
2022-12-13T04:07:00,mnr,7.99
2022-12-13T04:08:00,mnr,7.95
2022-12-13T04:09:00,mnr,7.86
2022-12-13T04:10:00,mnr,7.98
2022-12-13T04:11:00,mnr,7.69
2022-12-13T04:12:00,mnr,8.74
2022-12-13T04:13:00,mnr,8.88
2022-12-13T04:14:00,mnr,8.47
2022-12-13T04:15:00,mnr,8.48
2022-12-13T04:16:00,mnr,9.30
2022-12-13T04:17:00,mnr,8.43
2022-12-13T04:18:00,mnr,8.41
2022-12-13T04:19:00,mnr,8.39
2022-12-13T04:20:00,mnr,8.38
2022-12-13T04:21:00,mnr,8.35
2022-12-13T04:22:00,mnr,8.49
2022-12-13T04:23:00,mnr,9.88
2022-12-13T04:24:00,mnr,8.95
2022-12-13T04:25:00,mnr,8.62
2022-12-13T04:26:00,mnr,9.16
2022-12-13T04:27:00,mnr,8.56
2022-12-13T04:28:00,mnr,9.81
2022-12-13T04:29:00,mnr,8.55
2022-12-13T04:30:00,mnr,8.56
2022-12-13T04:31:00,mnr,8.59
2022-12-13T04:32:00,mnr,8.60
2022-12-13T04:33:00,mnr,8.56
2022-12-13T04:34:00,mnr,9.21
2022-12-13T04:35:00,mnr,9.22
2022-12-13T04:36:00,mnr,8.59
2022-12-13T04:37:00,mnr,8.57
2022-12-13T04:38:00,mnr,8.54
2022-12-13T04:39:00,mnr,8.50
2022-12-13T04:40:00,mnr,8.58
2022-12-13T04:41:00,mnr,8.54
2022-12-13T04:42:00,mnr,8.54
2022-12-13T04:43:00,mnr,9.00
2022-12-13T04:44:00,mnr,8.62
2022-12-13T04:45:00,mnr,8.60
2022-12-13T04:46:00,mnr,8.18
2022-12-13T04:47:00,mnr,8.16
2022-12-13T04:48:00,mnr,8.23
2022-12-13T04:49:00,mnr,8.11
2022-12-13T04:50:00,mnr,8.04
2022-12-13T04:51:00,mnr,8.26
2022-12-13T04:52:00,mnr,8.07
2022-12-13T04:53:00,mnr,8.07
2022-12-13T04:54:00,mnr,8.02
2022-12-13T04:55:00,mnr,8.13
2022-12-13T04:56:00,mnr,8.09
2022-12-13T04:57:00,mnr,8.29
2022-12-13T04:58:00,mnr,8.03
2022-12-13T04:59:00,mnr,8.65
2022-12-13T05:00:00,mnr,9.10
2022-12-13T05:01:00,mnr,9.31
2022-12-13T05:02:00,mnr,11.34
2022-12-13T05:03:00,mnr,12.37
2022-12-13T05:04:00,mnr,13.47
2022-12-13T05:05:00,mnr,12.62
2022-12-13T05:06:00,mnr,13.59
2022-12-13T05:07:00,mnr,12.75
2022-12-13T05:08:00,mnr,13.71
2022-12-13T05:09:00,mnr,13.50
2022-12-13T05:10:00,mnr,12.97
2022-12-13T05:11:00,mnr,12.92
2022-12-13T05:12:00,mnr,12.90
2022-12-13T05:13:00,mnr,12.93
2022-12-13T05:14:00,mnr,12.90
2022-12-13T05:15:00,mnr,14.98
2022-12-13T05:16:00,mnr,13.03
2022-12-13T05:17:00,mnr,13.40
2022-12-13T05:18:00,mnr,14.26
2022-12-13T05:19:00,mnr,13.22
2022-12-13T05:20:00,mnr,13.05
2022-12-13T05:21:00,mnr,13.05
2022-12-13T05:22:00,mnr,13.10
2022-12-13T05:23:00,mnr,13.13
2022-12-13T05:24:00,mnr,13.14
2022-12-13T05:25:00,mnr,13.43
2022-12-13T05:26:00,mnr,13.50
2022-12-13T05:27:00,mnr,13.40
2022-12-13T05:28:00,mnr,14.67
2022-12-13T05:29:00,mnr,17.23
2022-12-13T05:30:00,mnr,14.77
2022-12-13T05:31:00,mnr,14.87
2022-12-13T05:32:00,mnr,14.87
2022-12-13T05:33:00,mnr,15.12
2022-12-13T05:34:00,mnr,15.78
2022-12-13T05:35:00,mnr,16.00
2022-12-13T05:36:00,mnr,15.18
2022-12-13T05:37:00,mnr,15.14
2022-12-13T05:38:00,mnr,15.19
2022-12-13T05:39:00,mnr,15.06
2022-12-13T05:40:00,mnr,15.33
2022-12-13T05:41:00,mnr,15.23
2022-12-13T05:42:00,mnr,15.15
2022-12-13T05:43:00,mnr,15.28
2022-12-13T05:44:00,mnr,15.56
2022-12-13T05:45:00,mnr,16.40
2022-12-13T05:46:00,mnr,16.09
2022-12-13T05:47:00,mnr,16.05
2022-12-13T05:48:00,mnr,16.33
2022-12-13T05:49:00,mnr,15.95
2022-12-13T05:50:00,mnr,17.17
2022-12-13T05:51:00,mnr,14.93
2022-12-13T05:52:00,mnr,15.17
2022-12-13T05:53:00,mnr,15.72
2022-12-13T05:54:00,mnr,16.36
2022-12-13T05:55:00,mnr,16.53
2022-12-13T05:56:00,mnr,16.49
2022-12-13T05:57:00,mnr,16.24
2022-12-13T05:58:00,mnr,16.38
2022-12-13T05:59:00,mnr,15.63
2022-12-13T06:00:00,mnr,16.01
2022-12-13T06:01:00,mnr,16.63
2022-12-13T06:02:00,mnr,15.50
2022-12-13T06:03:00,mnr,15.75
2022-12-13T06:04:00,mnr,15.45
2022-12-13T06:05:00,mnr,15.58
2022-12-13T06:06:00,mnr,15.58
2022-12-13T06:07:00,mnr,16.49
2022-12-13T06:08:00,mnr,17.39
2022-12-13T06:09:00,mnr,17.54
2022-12-13T06:10:00,mnr,17.75
2022-12-13T06:11:00,mnr,19.47
2022-12-13T06:12:00,mnr,17.82
2022-12-13T06:13:00,mnr,17.74
2022-12-13T06:14:00,mnr,17.90
2022-12-13T06:15:00,mnr,17.83
2022-12-13T06:16:00,mnr,18.35
2022-12-13T06:17:00,mnr,17.99
2022-12-13T06:18:00,mnr,17.06
2022-12-13T06:19:00,mnr,19.87
2022-12-13T06:20:00,mnr,16.48
2022-12-13T06:21:00,mnr,16.47
2022-12-13T06:22:00,mnr,15.29
2022-12-13T06:23:00,mnr,15.34
2022-12-13T06:24:00,mnr,15.30
2022-12-13T06:25:00,mnr,15.88
2022-12-13T06:26:00,mnr,15.27
2022-12-13T06:27:00,mnr,15.53
2022-12-13T06:28:00,mnr,15.27
2022-12-13T06:29:00,mnr,15.30
2022-12-13T06:30:00,mnr,16.67
2022-12-13T06:31:00,mnr,16.67
2022-12-13T06:32:00,mnr,17.33
2022-12-13T06:33:00,mnr,16.93
2022-12-13T06:34:00,mnr,18.64
2022-12-13T06:35:00,mnr,18.63
2022-12-13T06:36:00,mnr,18.50
2022-12-13T06:37:00,mnr,19.56
2022-12-13T06:38:00,mnr,19.51
2022-12-13T06:39:00,mnr,19.50
2022-12-13T06:40:00,mnr,19.49
2022-12-13T06:41:00,mnr,19.39
2022-12-13T06:42:00,mnr,18.42
2022-12-13T06:43:00,mnr,19.37
2022-12-13T06:44:00,mnr,19.12
2022-12-13T06:45:00,mnr,19.33
2022-12-13T06:46:00,mnr,18.69
2022-12-13T06:47:00,mnr,18.79
2022-12-13T06:48:00,mnr,18.87
2022-12-13T06:49:00,mnr,18.84
2022-12-13T06:50:00,mnr,17.86
2022-12-13T06:51:00,mnr,17.86
2022-12-13T06:52:00,mnr,17.93
2022-12-13T06:53:00,mnr,17.98
2022-12-13T06:54:00,mnr,15.19
2022-12-13T06:55:00,mnr,19.17
2022-12-13T06:56:00,mnr,19.85
2022-12-13T06:57:00,mnr,19.07
2022-12-13T06:58:00,mnr,19.20
2022-12-13T06:59:00,mnr,18.26
2022-12-13T07:00:00,mnr,18.55
2022-12-13T07:01:00,mnr,19.26
2022-12-13T07:02:00,mnr,18.82
2022-12-13T07:03:00,mnr,19.16
2022-12-13T07:04:00,mnr,19.31
2022-12-13T07:05:00,mnr,18.58
2022-12-13T07:06:00,mnr,18.58
2022-12-13T07:07:00,mnr,18.45
2022-12-13T07:08:00,mnr,18.44
2022-12-13T07:09:00,mnr,18.60
2022-12-13T07:10:00,mnr,18.65
2022-12-13T07:11:00,mnr,17.40
2022-12-13T07:12:00,mnr,17.35
2022-12-13T07:13:00,mnr,17.41
2022-12-13T07:14:00,mnr,17.57
2022-12-13T07:15:00,mnr,17.60
2022-12-13T07:16:00,mnr,17.62
2022-12-13T07:17:00,mnr,18.72
2022-12-13T07:18:00,mnr,19.32
2022-12-13T07:19:00,mnr,18.55
2022-12-13T07:20:00,mnr,18.53
2022-12-13T07:21:00,mnr,18.45
2022-12-13T07:22:00,mnr,19.01
2022-12-13T07:23:00,mnr,19.01
2022-12-13T07:24:00,mnr,19.02
2022-12-13T07:25:00,mnr,18.38
2022-12-13T07:26:00,mnr,18.37
2022-12-13T07:27:00,mnr,15.93
2022-12-13T07:28:00,mnr,15.99
2022-12-13T07:29:00,mnr,15.88
2022-12-13T07:30:00,mnr,15.93
2022-12-13T07:31:00,mnr,16.66
2022-12-13T07:32:00,mnr,17.44
2022-12-13T07:33:00,mnr,16.08
2022-12-13T07:34:00,mnr,25.35
2022-12-13T07:35:00,mnr,16.64
2022-12-13T07:36:00,mnr,18.22
2022-12-13T07:37:00,mnr,18.87
2022-12-13T07:38:00,mnr,18.24
2022-12-13T07:39:00,mnr,18.01
2022-12-13T07:40:00,mnr,18.33
2022-12-13T07:41:00,mnr,18.84
2022-12-13T07:42:00,mnr,18.88
2022-12-13T07:43:00,mnr,18.97
2022-12-13T07:44:00,mnr,18.19
2022-12-13T07:45:00,mnr,18.65
2022-12-13T07:46:00,mnr,18.02
2022-12-13T07:47:00,mnr,18.69
2022-12-13T07:48:00,mnr,18.11
2022-12-13T07:49:00,mnr,18.15
2022-12-13T07:50:00,mnr,20.63
2022-12-13T07:51:00,mnr,19.15
2022-12-13T07:52:00,mnr,18.77
2022-12-13T07:53:00,mnr,18.84
2022-12-13T07:54:00,mnr,18.84
2022-12-13T07:55:00,mnr,18.60
2022-12-13T07:56:00,mnr,18.26
2022-12-13T07:57:00,mnr,19.36
2022-12-13T07:58:00,mnr,16.74
2022-12-13T07:59:00,mnr,16.85
2022-12-13T08:00:00,mnr,18.29
2022-12-13T08:01:00,mnr,17.34
2022-12-13T08:02:00,mnr,17.39
2022-12-13T08:03:00,mnr,17.36
2022-12-13T08:04:00,mnr,17.33
2022-12-13T08:05:00,mnr,17.41
2022-12-13T08:06:00,mnr,18.88
2022-12-13T08:07:00,mnr,17.29
2022-12-13T08:08:00,mnr,17.97
2022-12-13T08:09:00,mnr,18.12
2022-12-13T08:10:00,mnr,17.52
2022-12-13T08:11:00,mnr,17.49
2022-12-13T08:12:00,mnr,17.64
2022-12-13T08:13:00,mnr,18.54
2022-12-13T08:14:00,mnr,18.34
2022-12-13T08:15:00,mnr,18.47
2022-12-13T08:16:00,mnr,18.44
2022-12-13T08:17:00,mnr,18.37
2022-12-13T08:18:00,mnr,18.08
2022-12-13T08:19:00,mnr,17.99
2022-12-13T08:20:00,mnr,18.16
2022-12-13T08:21:00,mnr,18.32
2022-12-13T08:22:00,mnr,18.62
2022-12-13T08:23:00,mnr,19.32
2022-12-13T08:24:00,mnr,19.45
2022-12-13T08:25:00,mnr,18.72
2022-12-13T08:26:00,mnr,18.83
2022-12-13T08:27:00,mnr,18.15
2022-12-13T08:28:00,mnr,19.44
2022-12-13T08:29:00,mnr,19.45
2022-12-13T08:30:00,mnr,18.75
2022-12-13T08:31:00,mnr,18.06
2022-12-13T08:32:00,mnr,18.05
2022-12-13T08:33:00,mnr,17.77
2022-12-13T08:34:00,mnr,17.77
2022-12-13T08:35:00,mnr,17.50
2022-12-13T08:36:00,mnr,16.71
2022-12-13T08:37:00,mnr,16.70
2022-12-13T08:38:00,mnr,16.98
2022-12-13T08:39:00,mnr,16.89
2022-12-13T08:40:00,mnr,17.87
2022-12-13T08:41:00,mnr,17.42
2022-12-13T08:42:00,mnr,17.32
2022-12-13T08:43:00,mnr,18.62
2022-12-13T08:44:00,mnr,18.33
2022-12-13T08:45:00,mnr,18.32
2022-12-13T08:46:00,mnr,19.54
2022-12-13T08:47:00,mnr,18.43
2022-12-13T08:48:00,mnr,18.96
2022-12-13T08:49:00,mnr,18.31
2022-12-13T08:50:00,mnr,18.73
2022-12-13T08:51:00,mnr,20.29
2022-12-13T08:52:00,mnr,20.02
2022-12-13T08:53:00,mnr,19.71
2022-12-13T08:54:00,mnr,19.26
2022-12-13T08:55:00,mnr,20.08
2022-12-13T08:56:00,mnr,19.46
2022-12-13T08:57:00,mnr,19.33
2022-12-13T08:58:00,mnr,19.01
2022-12-13T08:59:00,mnr,19.20
2022-12-13T09:00:00,mnr,19.12
2022-12-13T09:01:00,mnr,19.10
2022-12-13T09:02:00,mnr,20.72
2022-12-13T09:03:00,mnr,18.50
2022-12-13T09:04:00,mnr,27.50
2022-12-13T09:05:00,mnr,21.64
2022-12-13T09:06:00,mnr,18.57
2022-12-13T09:07:00,mnr,19.53
2022-12-13T09:08:00,mnr,18.98
2022-12-13T09:09:00,mnr,19.46
2022-12-13T09:10:00,mnr,19.92
2022-12-13T09:11:00,mnr,19.56
2022-12-13T09:12:00,mnr,19.07
2022-12-13T09:13:00,mnr,19.54
2022-12-13T09:14:00,mnr,18.85
2022-12-13T09:15:00,mnr,18.86
2022-12-13T09:16:00,mnr,19.09
2022-12-13T09:17:00,mnr,19.81
2022-12-13T09:18:00,mnr,18.75
2022-12-13T09:19:00,mnr,18.73
2022-12-13T09:20:00,mnr,18.37
2022-12-13T09:21:00,mnr,18.37
2022-12-13T09:22:00,mnr,18.04
2022-12-13T09:23:00,mnr,19.25
2022-12-13T09:24:00,mnr,17.64
2022-12-13T09:25:00,mnr,17.55
2022-12-13T09:26:00,mnr,17.47
2022-12-13T09:27:00,mnr,17.84
2022-12-13T09:28:00,mnr,17.81
2022-12-13T09:29:00,mnr,17.98
2022-12-13T09:30:00,mnr,19.87
2022-12-13T09:31:00,mnr,19.19
2022-12-13T09:32:00,mnr,20.36
2022-12-13T09:33:00,mnr,19.69
2022-12-13T09:34:00,mnr,20.52
2022-12-13T09:35:00,mnr,17.84
2022-12-13T09:36:00,mnr,18.15
2022-12-13T09:37:00,mnr,18.24
2022-12-13T09:38:00,mnr,18.18
2022-12-13T09:39:00,mnr,18.10
2022-12-13T09:40:00,mnr,18.61
2022-12-13T09:41:00,mnr,18.52
2022-12-13T09:42:00,mnr,18.07
2022-12-13T09:43:00,mnr,18.11
2022-12-13T09:44:00,mnr,20.06
2022-12-13T09:45:00,mnr,18.69
2022-12-13T09:46:00,mnr,17.28
2022-12-13T09:47:00,mnr,17.35
2022-12-13T09:48:00,mnr,17.48
2022-12-13T09:49:00,mnr,16.96
2022-12-13T09:50:00,mnr,17.00
2022-12-13T09:51:00,mnr,17.81
2022-12-13T09:52:00,mnr,18.77
2022-12-13T09:53:00,mnr,17.64
2022-12-13T09:54:00,mnr,17.68
2022-12-13T09:55:00,mnr,17.68
2022-12-13T09:56:00,mnr,18.09
2022-12-13T09:57:00,mnr,17.55
2022-12-13T09:58:00,mnr,17.53
2022-12-13T09:59:00,mnr,17.66
2022-12-13T10:00:00,mnr,18.80
2022-12-13T10:01:00,mnr,19.40
2022-12-13T10:02:00,mnr,18.87
2022-12-13T10:03:00,mnr,18.99
2022-12-13T10:04:00,mnr,20.35
2022-12-13T10:05:00,mnr,20.36
2022-12-13T10:06:00,mnr,20.53
2022-12-13T10:07:00,mnr,20.82
2022-12-13T10:08:00,mnr,20.55
2022-12-13T10:09:00,mnr,21.85
2022-12-13T10:10:00,mnr,20.20
2022-12-13T10:11:00,mnr,20.20
2022-12-13T10:12:00,mnr,20.98
2022-12-13T10:13:00,mnr,20.58
2022-12-13T10:14:00,mnr,19.88
2022-12-13T10:15:00,mnr,19.30
2022-12-13T10:16:00,mnr,19.75
2022-12-13T10:17:00,mnr,19.97
2022-12-13T10:18:00,mnr,19.55
2022-12-13T10:19:00,mnr,19.30
2022-12-13T10:20:00,mnr,20.68
2022-12-13T10:21:00,mnr,19.84
2022-12-13T10:22:00,mnr,21.54
2022-12-13T10:23:00,mnr,20.54
2022-12-13T10:24:00,mnr,20.91
2022-12-13T10:25:00,mnr,20.92
2022-12-13T10:26:00,mnr,21.59
2022-12-13T10:27:00,mnr,21.13
2022-12-13T10:28:00,mnr,22.26
2022-12-13T10:29:00,mnr,21.75
2022-12-13T10:30:00,mnr,21.06
2022-12-13T10:31:00,mnr,21.19
2022-12-13T10:32:00,mnr,21.81
2022-12-13T10:33:00,mnr,19.61
2022-12-13T10:34:00,mnr,19.51
2022-12-13T10:35:00,mnr,19.96
2022-12-13T10:36:00,mnr,19.23
2022-12-13T10:37:00,mnr,19.63
2022-12-13T10:38:00,mnr,21.52
2022-12-13T10:39:00,mnr,21.16
2022-12-13T10:40:00,mnr,20.51
2022-12-13T10:41:00,mnr,20.56
2022-12-13T10:42:00,mnr,19.97
2022-12-13T10:43:00,mnr,19.99
2022-12-13T10:44:00,mnr,20.82
2022-12-13T10:45:00,mnr,20.58
2022-12-13T10:46:00,mnr,19.79
2022-12-13T10:47:00,mnr,19.70
2022-12-13T10:48:00,mnr,18.85
2022-12-13T10:49:00,mnr,18.81
2022-12-13T10:50:00,mnr,18.81
2022-12-13T10:51:00,mnr,18.88
2022-12-13T10:52:00,mnr,18.78
2022-12-13T10:53:00,mnr,20.46
2022-12-13T10:54:00,mnr,18.61
2022-12-13T10:55:00,mnr,18.73
2022-12-13T10:56:00,mnr,18.81
2022-12-13T10:57:00,mnr,19.00
2022-12-13T10:58:00,mnr,21.63
2022-12-13T10:59:00,mnr,22.25
2022-12-13T11:00:00,mnr,20.79
2022-12-13T11:01:00,mnr,22.22
2022-12-13T11:02:00,mnr,21.97
2022-12-13T11:03:00,mnr,21.79
2022-12-13T11:04:00,mnr,19.59
2022-12-13T11:05:00,mnr,19.61
2022-12-13T11:06:00,mnr,19.98
2022-12-13T11:07:00,mnr,19.96
2022-12-13T11:08:00,mnr,19.96
2022-12-13T11:09:00,mnr,20.21
2022-12-13T11:10:00,mnr,19.81
2022-12-13T11:11:00,mnr,19.68
2022-12-13T11:12:00,mnr,20.71
2022-12-13T11:13:00,mnr,20.25
2022-12-13T11:14:00,mnr,22.03
2022-12-13T11:15:00,mnr,20.14
2022-12-13T11:16:00,mnr,19.93
2022-12-13T11:17:00,mnr,19.72
2022-12-13T11:18:00,mnr,19.76
2022-12-13T11:19:00,mnr,19.40
2022-12-13T11:20:00,mnr,19.45
2022-12-13T11:21:00,mnr,18.79
2022-12-13T11:22:00,mnr,19.52
2022-12-13T11:23:00,mnr,19.66
2022-12-13T11:24:00,mnr,20.16
2022-12-13T11:25:00,mnr,20.15
2022-12-13T11:26:00,mnr,20.11
2022-12-13T11:27:00,mnr,20.85
2022-12-13T11:28:00,mnr,18.90
2022-12-13T11:29:00,mnr,18.55
2022-12-13T11:30:00,mnr,19.81
2022-12-13T11:31:00,mnr,17.99
2022-12-13T11:32:00,mnr,17.63
2022-12-13T11:33:00,mnr,17.40
2022-12-13T11:34:00,mnr,17.12
2022-12-13T11:35:00,mnr,17.30
2022-12-13T11:36:00,mnr,17.36
2022-12-13T11:37:00,mnr,17.73
2022-12-13T11:38:00,mnr,19.04
2022-12-13T11:39:00,mnr,18.68
2022-12-13T11:40:00,mnr,18.74
2022-12-13T11:41:00,mnr,19.30
2022-12-13T11:42:00,mnr,18.75
2022-12-13T11:43:00,mnr,19.47
2022-12-13T11:44:00,mnr,18.85
2022-12-13T11:45:00,mnr,18.96
2022-12-13T11:46:00,mnr,19.46
2022-12-13T11:47:00,mnr,18.75
2022-12-13T11:48:00,mnr,18.88
2022-12-13T11:49:00,mnr,18.90
2022-12-13T11:50:00,mnr,18.94
2022-12-13T11:51:00,mnr,20.38
2022-12-13T11:52:00,mnr,20.65
2022-12-13T11:53:00,mnr,20.17
2022-12-13T11:54:00,mnr,21.28
2022-12-13T11:55:00,mnr,22.77
2022-12-13T11:56:00,mnr,21.15
2022-12-13T11:57:00,mnr,21.22
2022-12-13T11:58:00,mnr,20.97
2022-12-13T11:59:00,mnr,19.31
2022-12-13T12:00:00,mnr,19.42
2022-12-13T12:01:00,mnr,22.20
2022-12-13T12:02:00,mnr,21.82
2022-12-13T12:03:00,mnr,21.09
2022-12-13T12:04:00,mnr,19.64
2022-12-13T12:05:00,mnr,19.63
2022-12-13T12:06:00,mnr,19.56
2022-12-13T12:07:00,mnr,19.53
2022-12-13T12:08:00,mnr,19.81
2022-12-13T12:09:00,mnr,19.61
2022-12-13T12:10:00,mnr,18.34
2022-12-13T12:11:00,mnr,18.36
2022-12-13T12:12:00,mnr,18.69
2022-12-13T12:13:00,mnr,18.43
2022-12-13T12:14:00,mnr,18.35
2022-12-13T12:15:00,mnr,18.55
2022-12-13T12:16:00,mnr,18.97
2022-12-13T12:17:00,mnr,19.76
2022-12-13T12:18:00,mnr,19.72
2022-12-13T12:19:00,mnr,21.22
2022-12-13T12:20:00,mnr,18.75
2022-12-13T12:21:00,mnr,19.67
2022-12-13T12:22:00,mnr,19.00
2022-12-13T12:23:00,mnr,18.83
2022-12-13T12:24:00,mnr,19.72
2022-12-13T12:25:00,mnr,15.80
2022-12-13T12:26:00,mnr,20.75
2022-12-13T12:27:00,mnr,19.77
2022-12-13T12:28:00,mnr,19.06
2022-12-13T12:29:00,mnr,20.50
2022-12-13T12:30:00,mnr,19.15
2022-12-13T12:31:00,mnr,19.10
2022-12-13T12:32:00,mnr,19.19
2022-12-13T12:33:00,mnr,19.15
2022-12-13T12:34:00,mnr,19.25
2022-12-13T12:35:00,mnr,19.23
2022-12-13T12:36:00,mnr,18.32
2022-12-13T12:37:00,mnr,17.22
2022-12-13T12:38:00,mnr,17.60
2022-12-13T12:39:00,mnr,17.48
2022-12-13T12:40:00,mnr,18.15
2022-12-13T12:41:00,mnr,18.70
2022-12-13T12:42:00,mnr,17.54
2022-12-13T12:43:00,mnr,18.05
2022-12-13T12:44:00,mnr,17.97
2022-12-13T12:45:00,mnr,17.67
2022-12-13T12:46:00,mnr,26.63
2022-12-13T12:47:00,mnr,18.24
2022-12-13T12:48:00,mnr,18.29
2022-12-13T12:49:00,mnr,18.10
2022-12-13T12:50:00,mnr,19.28
2022-12-13T12:51:00,mnr,19.64
2022-12-13T12:52:00,mnr,19.45
2022-12-13T12:53:00,mnr,18.02
2022-12-13T12:54:00,mnr,17.72
2022-12-13T12:55:00,mnr,17.85
2022-12-13T12:56:00,mnr,17.84
2022-12-13T12:57:00,mnr,17.87
2022-12-13T12:58:00,mnr,17.77
2022-12-13T12:59:00,mnr,17.80
2022-12-13T13:00:00,mnr,18.85
2022-12-13T13:01:00,mnr,18.48
2022-12-13T13:02:00,mnr,19.28
2022-12-13T13:03:00,mnr,18.69
2022-12-13T13:04:00,mnr,20.07
2022-12-13T13:05:00,mnr,20.26
2022-12-13T13:06:00,mnr,19.93
2022-12-13T13:07:00,mnr,19.99
2022-12-13T13:08:00,mnr,19.21
2022-12-13T13:09:00,mnr,18.68
2022-12-13T13:10:00,mnr,18.93
2022-12-13T13:11:00,mnr,19.69
2022-12-13T13:12:00,mnr,18.23
2022-12-13T13:13:00,mnr,18.25
2022-12-13T13:14:00,mnr,18.09
2022-12-13T13:15:00,mnr,18.78
2022-12-13T13:16:00,mnr,18.26
2022-12-13T13:17:00,mnr,18.32
2022-12-13T13:18:00,mnr,18.43
2022-12-13T13:19:00,mnr,18.43
2022-12-13T13:20:00,mnr,18.74
2022-12-13T13:21:00,mnr,19.02
2022-12-13T13:22:00,mnr,19.80
2022-12-13T13:23:00,mnr,19.27
2022-12-13T13:24:00,mnr,19.25
2022-12-13T13:25:00,mnr,18.22